This is the latest recevied weather packets stored in our database for station/object WI5KEY. If no packets are shown the sender has not sent any weather packets the latest 10 day(s).
| Time | Temp. | Humidity | Pressure | Rain* | Wind** | Luminosity | Snow |
|---|---|---|---|---|---|---|---|
| 1777420911 | 31.11° C | 70% | 1008.4 hPa | 0 mm | - | - | - |
| 1777419951 | 31.11° C | 70% | 1008.4 hPa | 0 mm | - | - | - |
| 1777419048 | 31.67° C | 69% | 1008.4 hPa | 0 mm | - | - | - |
| 1777418148 | 32.22° C | 68% | 1008.2 hPa | 0 mm | - | - | - |
| 1777417247 | 32.22° C | 67% | 1008.2 hPa | 0 mm | - | - | - |
| 1777416345 | 32.22° C | 68% | 1008.5 hPa | 0 mm | - | - | - |
| 1777415446 | 32.78° C | 66% | 1008.7 hPa | 0 mm | - | - | - |
| 1777414540 | 32.78° C | 65% | 1008.9 hPa | 0 mm | - | - | - |
| 1777413639 | 32.78° C | 64% | 1009.1 hPa | 0 mm | - | - | - |
| 1777412744 | 33.33° C | 64% | 1009.2 hPa | 0 mm | - | - | - |
| 1777411838 | 33.89° C | 63% | 1009.2 hPa | 0 mm | - | - | - |
| 1777410940 | 33.89° C | 61% | 1009.4 hPa | 0 mm | - | - | - |
| 1777410038 | 33.89° C | 62% | 1009.5 hPa | 0 mm | - | - | - |
| 1777409141 | 33.33° C | 60% | 1009.8 hPa | 0 mm | - | - | - |
| 1777408229 | 33.89° C | 62% | 1010 hPa | 0 mm | - | - | - |
| 1777407326 | 33.33° C | 64% | 1010.3 hPa | 0 mm | - | - | - |
| 1777406425 | 33.33° C | 63% | 1010.4 hPa | 0 mm | - | - | - |
| 1777405523 | 33.33° C | 67% | 1010.6 hPa | 0 mm | - | - | - |
| 1777404620 | 33.33° C | 67% | 1010.8 hPa | 0 mm | - | - | - |
| 1777403716 | 32.78° C | 69% | 1010.9 hPa | 0 mm | - | - | - |
| 1777402813 | 32.22° C | 69% | 1011.2 hPa | 0 mm | - | - | - |
| 1777401913 | 31.67° C | 70% | 1011.2 hPa | 0 mm | - | - | - |
| 1777401022 | 31.67° C | 72% | 1011.3 hPa | 0 mm | - | - | - |
| 1777400103 | 30.56° C | 74% | 1011.1 hPa | 0 mm | - | - | - |
| 1777399259 | 30.56° C | 76% | 1011.4 hPa | 0 mm | - | - | - |
* Rain latest hour (hover to see other rain measurements)
** Current wind speed in m/s (hover to see current wind gust speed)